Year,Month,Day,Hour,Minute,Value (Times are PST for temperature in C)
2022,04,20,00,00,4.70
2022,04,20,00,01,4.60
2022,04,20,00,02,4.60
2022,04,20,00,03,4.60
2022,04,20,00,04,4.60
2022,04,20,00,05,4.60
2022,04,20,00,06,4.60
2022,04,20,00,07,4.60
2022,04,20,00,08,4.60
2022,04,20,00,09,4.60
2022,04,20,00,10,4.50
2022,04,20,00,11,4.50
2022,04,20,00,12,4.50
2022,04,20,00,13,4.50
2022,04,20,00,14,4.50
2022,04,20,00,15,4.40
2022,04,20,00,16,4.40
2022,04,20,00,17,4.40
2022,04,20,00,18,4.40
2022,04,20,00,19,4.40
2022,04,20,00,20,4.40
2022,04,20,00,21,4.30
2022,04,20,00,22,4.30
2022,04,20,00,23,4.30
2022,04,20,00,24,4.30
2022,04,20,00,25,4.30
2022,04,20,00,26,4.30
2022,04,20,00,27,4.30
2022,04,20,00,28,4.30
2022,04,20,00,29,4.30
2022,04,20,00,30,4.30
2022,04,20,00,31,4.30
2022,04,20,00,32,4.20
2022,04,20,00,33,4.20
2022,04,20,00,34,4.20
2022,04,20,00,35,4.20
2022,04,20,00,36,4.20
2022,04,20,00,37,4.20
2022,04,20,00,38,4.20
2022,04,20,00,39,4.20
2022,04,20,00,40,4.20
2022,04,20,00,41,4.20
2022,04,20,00,42,4.10
2022,04,20,00,43,4.10
2022,04,20,00,44,4.10
2022,04,20,00,45,4.10
2022,04,20,00,46,4.10
2022,04,20,00,47,4.10
2022,04,20,00,48,4.10
2022,04,20,00,49,4.10
2022,04,20,00,50,4.10
2022,04,20,00,51,4.10
2022,04,20,00,52,4.00
2022,04,20,00,53,4.00
2022,04,20,00,54,4.00
2022,04,20,00,55,4.00
2022,04,20,00,56,4.00
2022,04,20,00,57,4.00
2022,04,20,00,58,4.00
2022,04,20,00,59,4.00
2022,04,20,01,00,4.00
2022,04,20,01,01,3.90
2022,04,20,01,02,3.90
2022,04,20,01,03,3.90
2022,04,20,01,04,3.90
2022,04,20,01,05,3.90
2022,04,20,01,06,3.90
2022,04,20,01,07,3.90
2022,04,20,01,08,3.80
2022,04,20,01,09,3.80
2022,04,20,01,10,3.80
2022,04,20,01,11,3.80
2022,04,20,01,12,3.80
2022,04,20,01,13,3.80
2022,04,20,01,14,3.80
2022,04,20,01,15,3.80
2022,04,20,01,16,3.80
2022,04,20,01,17,3.80
2022,04,20,01,18,3.80
2022,04,20,01,19,3.80
2022,04,20,01,20,3.80
2022,04,20,01,21,3.80
2022,04,20,01,22,3.80
2022,04,20,01,23,3.70
2022,04,20,01,24,3.70
2022,04,20,01,25,3.70
2022,04,20,01,26,3.70
2022,04,20,01,27,3.70
2022,04,20,01,28,3.70
2022,04,20,01,29,3.70
2022,04,20,01,30,3.70
2022,04,20,01,31,3.70
2022,04,20,01,32,3.70
2022,04,20,01,33,3.70
2022,04,20,01,34,3.70
2022,04,20,01,35,3.70
2022,04,20,01,36,3.70
2022,04,20,01,37,3.60
2022,04,20,01,38,3.60
2022,04,20,01,39,3.60
2022,04,20,01,40,3.50
2022,04,20,01,41,3.50
2022,04,20,01,42,3.50
2022,04,20,01,43,3.50
2022,04,20,01,44,3.50
2022,04,20,01,45,3.50
2022,04,20,01,46,3.40
2022,04,20,01,47,3.40
2022,04,20,01,48,3.40
2022,04,20,01,49,3.40
2022,04,20,01,50,3.40
2022,04,20,01,51,3.40
2022,04,20,01,52,3.30
2022,04,20,01,53,3.30
2022,04,20,01,54,3.30
2022,04,20,01,55,3.30
2022,04,20,01,56,3.30
2022,04,20,01,57,3.30
2022,04,20,01,58,3.30
2022,04,20,01,59,3.20
2022,04,20,02,00,3.20
2022,04,20,02,01,3.20
2022,04,20,02,02,3.30
2022,04,20,02,03,3.30
2022,04,20,02,04,3.30
2022,04,20,02,05,3.30
2022,04,20,02,06,3.30
2022,04,20,02,07,3.30
2022,04,20,02,08,3.40
2022,04,20,02,09,3.40
2022,04,20,02,10,3.40
2022,04,20,02,11,3.40
2022,04,20,02,12,3.40
2022,04,20,02,13,3.40
2022,04,20,02,14,3.40
2022,04,20,02,15,3.40
2022,04,20,02,16,3.40
2022,04,20,02,17,3.40
2022,04,20,02,18,3.40
2022,04,20,02,19,3.40
2022,04,20,02,20,3.40
2022,04,20,02,21,3.40
2022,04,20,02,22,3.40
2022,04,20,02,23,3.40
2022,04,20,02,24,3.40
2022,04,20,02,25,3.40
2022,04,20,02,26,3.40
2022,04,20,02,27,3.40
2022,04,20,02,28,3.40
2022,04,20,02,29,3.40
2022,04,20,02,30,3.40
2022,04,20,02,31,3.40
2022,04,20,02,32,3.40
2022,04,20,02,33,3.40
2022,04,20,02,34,3.40
2022,04,20,02,35,3.40
2022,04,20,02,36,3.40
2022,04,20,02,37,3.40
2022,04,20,02,38,3.40
2022,04,20,02,39,3.40
2022,04,20,02,40,3.40
2022,04,20,02,41,3.40
2022,04,20,02,42,3.40
2022,04,20,02,43,3.40
2022,04,20,02,44,3.40
2022,04,20,02,45,3.40
2022,04,20,02,46,3.40
2022,04,20,02,47,3.40
2022,04,20,02,48,3.40
2022,04,20,02,49,3.40
2022,04,20,02,50,3.40
2022,04,20,02,51,3.40
2022,04,20,02,52,3.30
2022,04,20,02,53,3.30
2022,04,20,02,54,3.40
2022,04,20,02,55,3.40
2022,04,20,02,56,3.40
2022,04,20,02,57,3.40
2022,04,20,02,58,3.40
2022,04,20,02,59,3.40
2022,04,20,03,00,3.40
2022,04,20,03,01,3.40
2022,04,20,03,02,3.40
2022,04,20,03,03,3.40
2022,04,20,03,04,3.40
2022,04,20,03,05,3.40
2022,04,20,03,06,3.40
2022,04,20,03,07,3.40
2022,04,20,03,08,3.40
2022,04,20,03,09,3.40
2022,04,20,03,10,3.40
2022,04,20,03,11,3.40
2022,04,20,03,12,3.30
2022,04,20,03,13,3.30
2022,04,20,03,14,3.30
2022,04,20,03,15,3.30
2022,04,20,03,16,3.30
2022,04,20,03,17,3.30
2022,04,20,03,18,3.30
2022,04,20,03,19,3.30
2022,04,20,03,20,3.30
2022,04,20,03,21,3.30
2022,04,20,03,22,3.30
2022,04,20,03,23,3.30
2022,04,20,03,24,3.30
2022,04,20,03,25,3.30
2022,04,20,03,26,3.30
2022,04,20,03,27,3.30
2022,04,20,03,28,3.30
2022,04,20,03,29,3.30
2022,04,20,03,30,3.30
2022,04,20,03,31,3.30
2022,04,20,03,32,3.30
2022,04,20,03,33,3.30
2022,04,20,03,34,3.30
2022,04,20,03,35,3.30
2022,04,20,03,36,3.30
2022,04,20,03,37,3.30
2022,04,20,03,38,3.30
2022,04,20,03,39,3.20
2022,04,20,03,40,3.20
2022,04,20,03,41,3.20
2022,04,20,03,42,3.20
2022,04,20,03,43,3.20
2022,04,20,03,44,3.20
2022,04,20,03,45,3.20
2022,04,20,03,46,3.20
2022,04,20,03,47,3.20
2022,04,20,03,48,3.20
2022,04,20,03,49,3.20
2022,04,20,03,50,3.20
2022,04,20,03,51,3.20
2022,04,20,03,52,3.20
2022,04,20,03,53,3.20
2022,04,20,03,54,3.20
2022,04,20,03,55,3.20
2022,04,20,03,56,3.20
2022,04,20,03,57,3.20
2022,04,20,03,58,3.20
2022,04,20,03,59,3.20
2022,04,20,04,00,3.20
2022,04,20,04,01,3.20
2022,04,20,04,02,3.20
2022,04,20,04,03,3.20
2022,04,20,04,04,3.20
2022,04,20,04,05,3.10
2022,04,20,04,06,3.10
2022,04,20,04,07,3.10
2022,04,20,04,08,3.10
2022,04,20,04,09,3.10
2022,04,20,04,10,3.10
2022,04,20,04,11,3.10
2022,04,20,04,12,3.10
2022,04,20,04,13,3.10
2022,04,20,04,14,3.10
2022,04,20,04,15,3.10
2022,04,20,04,16,3.10
2022,04,20,04,17,3.10
2022,04,20,04,18,3.10
2022,04,20,04,19,3.10
2022,04,20,04,20,3.10
2022,04,20,04,21,3.10
2022,04,20,04,22,3.10
2022,04,20,04,23,3.10
2022,04,20,04,24,3.10
2022,04,20,04,25,3.10
2022,04,20,04,26,3.10
2022,04,20,04,27,3.10
2022,04,20,04,28,3.10
2022,04,20,04,29,3.10
2022,04,20,04,30,3.10
2022,04,20,04,31,3.10
2022,04,20,04,32,3.10
2022,04,20,04,33,3.20
2022,04,20,04,34,3.20
2022,04,20,04,35,3.20
2022,04,20,04,36,3.20
2022,04,20,04,37,3.20
2022,04,20,04,38,3.20
2022,04,20,04,39,3.20
2022,04,20,04,40,3.20
2022,04,20,04,41,3.20
2022,04,20,04,42,3.20
2022,04,20,04,43,3.20
2022,04,20,04,44,3.20
2022,04,20,04,45,3.20
2022,04,20,04,46,3.20
2022,04,20,04,47,3.20
2022,04,20,04,48,3.20
2022,04,20,04,49,3.20
2022,04,20,04,50,3.20
2022,04,20,04,51,3.10
2022,04,20,04,52,3.10
2022,04,20,04,53,3.10
2022,04,20,04,54,3.10
2022,04,20,04,55,3.10
2022,04,20,04,56,3.10
2022,04,20,04,57,3.10
2022,04,20,04,58,3.10
2022,04,20,04,59,3.10
2022,04,20,05,00,3.10
2022,04,20,05,01,3.10
2022,04,20,05,02,3.10
2022,04,20,05,03,3.10
2022,04,20,05,04,3.10
2022,04,20,05,05,3.10
2022,04,20,05,06,3.10
2022,04,20,05,07,3.10
2022,04,20,05,08,3.10
2022,04,20,05,09,3.10
2022,04,20,05,10,3.10
2022,04,20,05,11,3.10
2022,04,20,05,12,3.10
2022,04,20,05,13,3.10
2022,04,20,05,14,3.20
2022,04,20,05,15,3.10
2022,04,20,05,16,3.20
2022,04,20,05,17,3.20
2022,04,20,05,18,3.20
2022,04,20,05,19,3.20
2022,04,20,05,20,3.10
2022,04,20,05,21,3.10
2022,04,20,05,22,3.10
2022,04,20,05,23,3.10
2022,04,20,05,24,3.10
2022,04,20,05,25,3.10
2022,04,20,05,26,3.10
2022,04,20,05,27,3.10
2022,04,20,05,28,3.10
2022,04,20,05,29,3.10
2022,04,20,05,30,3.00
2022,04,20,05,31,3.00
2022,04,20,05,32,3.00
2022,04,20,05,33,3.00
2022,04,20,05,34,3.00
2022,04,20,05,35,3.00
2022,04,20,05,36,2.90
2022,04,20,05,37,2.90
2022,04,20,05,38,2.90
2022,04,20,05,39,2.90
2022,04,20,05,40,2.90
2022,04,20,05,41,2.90
2022,04,20,05,42,2.90
2022,04,20,05,43,2.90
2022,04,20,05,44,2.80
2022,04,20,05,45,2.80
2022,04,20,05,46,2.80
2022,04,20,05,47,2.80
2022,04,20,05,48,2.80
2022,04,20,05,49,2.80
2022,04,20,05,50,2.80
2022,04,20,05,51,2.80
2022,04,20,05,52,2.80
2022,04,20,05,53,2.80
2022,04,20,05,54,2.70
2022,04,20,05,55,2.70
2022,04,20,05,56,2.80
2022,04,20,05,57,2.80
2022,04,20,05,58,2.80
2022,04,20,05,59,2.70
2022,04,20,06,00,2.70
2022,04,20,06,01,2.70
2022,04,20,06,02,2.70
2022,04,20,06,03,2.70
2022,04,20,06,04,2.70
2022,04,20,06,05,2.70
2022,04,20,06,06,2.70
2022,04,20,06,07,2.70
2022,04,20,06,08,2.70
2022,04,20,06,09,2.70
2022,04,20,06,10,2.70
2022,04,20,06,11,2.60
2022,04,20,06,12,2.60
2022,04,20,06,13,2.60
2022,04,20,06,14,2.60
2022,04,20,06,15,2.60
2022,04,20,06,16,2.60
2022,04,20,06,17,2.60
2022,04,20,06,18,2.60
2022,04,20,06,19,2.60
2022,04,20,06,20,2.60
2022,04,20,06,21,2.60
2022,04,20,06,22,2.60
2022,04,20,06,23,2.60
2022,04,20,06,24,2.60
2022,04,20,06,25,2.60
2022,04,20,06,26,2.60
2022,04,20,06,27,2.60
2022,04,20,06,28,2.60
2022,04,20,06,29,2.60
2022,04,20,06,30,2.60
2022,04,20,06,31,2.50
2022,04,20,06,32,2.50
2022,04,20,06,33,2.40
2022,04,20,06,34,2.40
2022,04,20,06,35,2.40
2022,04,20,06,36,2.40
2022,04,20,06,37,2.40
2022,04,20,06,38,2.40
2022,04,20,06,39,2.40
2022,04,20,06,40,2.40
2022,04,20,06,41,2.30
2022,04,20,06,42,2.30
2022,04,20,06,43,2.30
2022,04,20,06,44,2.30
2022,04,20,06,45,2.30
2022,04,20,06,46,2.30
2022,04,20,06,47,2.40
2022,04,20,06,48,2.40
2022,04,20,06,49,2.40
2022,04,20,06,50,2.40
2022,04,20,06,51,2.40
2022,04,20,06,52,2.40
2022,04,20,06,53,2.40
2022,04,20,06,54,2.40
2022,04,20,06,55,2.50
2022,04,20,06,56,2.50
2022,04,20,06,57,2.50
2022,04,20,06,58,2.50
2022,04,20,06,59,2.50
2022,04,20,07,00,2.50
2022,04,20,07,01,2.50
2022,04,20,07,02,2.50
2022,04,20,07,03,2.50
2022,04,20,07,04,2.50
2022,04,20,07,05,2.60
2022,04,20,07,06,2.60
2022,04,20,07,07,2.60
2022,04,20,07,08,2.60
2022,04,20,07,09,2.60
2022,04,20,07,10,2.70
2022,04,20,07,11,2.70
2022,04,20,07,12,2.70
2022,04,20,07,13,2.70
2022,04,20,07,14,2.80
2022,04,20,07,15,2.80
2022,04,20,07,16,2.80
2022,04,20,07,17,2.80
2022,04,20,07,18,2.80
2022,04,20,07,19,2.90
2022,04,20,07,20,2.90
2022,04,20,07,21,3.00
2022,04,20,07,22,3.00
2022,04,20,07,23,3.10
2022,04,20,07,24,3.10
2022,04,20,07,25,3.10
2022,04,20,07,26,3.10
2022,04,20,07,27,3.20
2022,04,20,07,28,3.20
2022,04,20,07,29,3.20
2022,04,20,07,30,3.20
2022,04,20,07,31,3.30
2022,04,20,07,32,3.30
2022,04,20,07,33,3.30
2022,04,20,07,34,3.30
2022,04,20,07,35,3.30
2022,04,20,07,36,3.40
2022,04,20,07,37,3.40
2022,04,20,07,38,3.40
2022,04,20,07,39,3.40
2022,04,20,07,40,3.40
2022,04,20,07,41,3.50
2022,04,20,07,42,3.50
2022,04,20,07,43,3.60
2022,04,20,07,44,3.60
2022,04,20,07,45,3.60
2022,04,20,07,46,3.70
2022,04,20,07,47,3.70
2022,04,20,07,48,3.80
2022,04,20,07,49,3.80
2022,04,20,07,50,3.80
2022,04,20,07,51,3.90
2022,04,20,07,52,3.90
2022,04,20,07,53,4.00
2022,04,20,07,54,4.00
2022,04,20,07,55,4.00
2022,04,20,07,56,4.10
2022,04,20,07,57,4.10
2022,04,20,07,58,4.10
2022,04,20,07,59,4.20
2022,04,20,08,00,4.20
2022,04,20,08,01,4.20
2022,04,20,08,02,4.30
2022,04,20,08,03,4.30
2022,04,20,08,04,4.30
2022,04,20,08,05,4.40
2022,04,20,08,06,4.40
2022,04,20,08,07,4.40
2022,04,20,08,08,4.50
2022,04,20,08,09,4.50
2022,04,20,08,10,4.60
2022,04,20,08,11,4.60
2022,04,20,08,12,4.70
2022,04,20,08,13,4.70
2022,04,20,08,14,4.80
2022,04,20,08,15,4.90
2022,04,20,08,16,4.90
2022,04,20,08,17,5.00
2022,04,20,08,18,5.10
2022,04,20,08,19,5.20
2022,04,20,08,20,5.30
2022,04,20,08,21,5.30
2022,04,20,08,22,5.40
2022,04,20,08,23,5.50
2022,04,20,08,24,5.60
2022,04,20,08,25,5.70
2022,04,20,08,26,5.80
2022,04,20,08,27,5.80
2022,04,20,08,28,5.80
2022,04,20,08,29,5.80
2022,04,20,08,30,5.90
2022,04,20,08,31,5.90
2022,04,20,08,32,6.00
2022,04,20,08,33,6.00
2022,04,20,08,34,6.00
2022,04,20,08,35,6.00
2022,04,20,08,36,6.10
2022,04,20,08,37,6.10
2022,04,20,08,38,6.10
2022,04,20,08,39,6.10
2022,04,20,08,40,6.20
2022,04,20,08,41,6.30
2022,04,20,08,42,6.30
2022,04,20,08,43,6.40
2022,04,20,08,44,6.40
2022,04,20,08,45,6.50
2022,04,20,08,46,6.60
2022,04,20,08,47,6.60
2022,04,20,08,48,6.60
2022,04,20,08,49,6.60
2022,04,20,08,50,6.60
2022,04,20,08,51,6.60
2022,04,20,08,52,6.70
2022,04,20,08,53,6.70
2022,04,20,08,54,6.80
2022,04,20,08,55,6.80
2022,04,20,08,56,6.80
2022,04,20,08,57,6.90
2022,04,20,08,58,6.90
2022,04,20,08,59,6.80
2022,04,20,09,00,6.80
2022,04,20,09,01,6.80
2022,04,20,09,02,6.80
2022,04,20,09,03,6.80
2022,04,20,09,04,6.80
2022,04,20,09,05,6.80
2022,04,20,09,06,6.80
2022,04,20,09,07,6.80
2022,04,20,09,08,6.80
2022,04,20,09,09,6.70
2022,04,20,09,10,6.70
2022,04,20,09,11,6.70
2022,04,20,09,12,6.70
2022,04,20,09,13,6.70
2022,04,20,09,14,6.70
2022,04,20,09,15,6.70
2022,04,20,09,16,6.70
2022,04,20,09,17,6.70
2022,04,20,09,18,6.80
2022,04,20,09,19,6.80
2022,04,20,09,20,6.80
2022,04,20,09,21,6.80
2022,04,20,09,22,6.80
2022,04,20,09,23,6.80
2022,04,20,09,24,6.80
2022,04,20,09,25,6.80
2022,04,20,09,26,6.80
2022,04,20,09,27,6.90
2022,04,20,09,28,6.90
2022,04,20,09,29,7.00
2022,04,20,09,30,7.00
2022,04,20,09,31,7.10
2022,04,20,09,32,7.10
2022,04,20,09,33,7.10
2022,04,20,09,34,7.20
2022,04,20,09,35,7.20
2022,04,20,09,36,7.20
2022,04,20,09,37,7.30
2022,04,20,09,38,7.30
2022,04,20,09,39,7.30
2022,04,20,09,40,7.30
2022,04,20,09,41,7.40
2022,04,20,09,42,7.40
2022,04,20,09,43,7.50
2022,04,20,09,44,7.50
2022,04,20,09,45,7.60
2022,04,20,09,46,7.60
2022,04,20,09,47,7.60
2022,04,20,09,48,7.70
2022,04,20,09,49,7.70
2022,04,20,09,50,7.70
2022,04,20,09,51,7.70
2022,04,20,09,52,7.70
2022,04,20,09,53,7.70
2022,04,20,09,54,7.70
2022,04,20,09,55,7.70
2022,04,20,09,56,7.70
2022,04,20,09,57,7.70
2022,04,20,09,58,7.70
2022,04,20,09,59,7.60
2022,04,20,10,00,7.60
2022,04,20,10,01,7.50
2022,04,20,10,02,7.60
2022,04,20,10,03,7.60
2022,04,20,10,04,7.60
2022,04,20,10,05,7.50
2022,04,20,10,06,7.50
2022,04,20,10,07,7.40
2022,04,20,10,08,7.40
2022,04,20,10,09,7.30
2022,04,20,10,10,7.40
2022,04,20,10,11,7.40
2022,04,20,10,12,7.40
2022,04,20,10,13,7.50
2022,04,20,10,14,7.50
2022,04,20,10,15,7.60
2022,04,20,10,16,7.60
2022,04,20,10,17,7.70
2022,04,20,10,18,7.70
2022,04,20,10,19,7.80
2022,04,20,10,20,7.80
2022,04,20,10,21,7.80
2022,04,20,10,22,7.80
2022,04,20,10,23,7.80
2022,04,20,10,24,7.80
2022,04,20,10,25,7.80
2022,04,20,10,26,7.80
2022,04,20,10,27,7.90
2022,04,20,10,28,7.90
2022,04,20,10,29,8.00
2022,04,20,10,30,8.00
2022,04,20,10,31,8.00
2022,04,20,10,32,8.00
2022,04,20,10,33,8.10
2022,04,20,10,34,8.10
2022,04,20,10,35,8.10
2022,04,20,10,36,8.20
2022,04,20,10,37,8.20
2022,04,20,10,38,8.30
2022,04,20,10,39,8.40
2022,04,20,10,40,8.30
2022,04,20,10,41,8.30
2022,04,20,10,42,8.20
2022,04,20,10,43,8.20
2022,04,20,10,44,8.20
2022,04,20,10,45,8.20
2022,04,20,10,46,8.20
2022,04,20,10,47,8.10
2022,04,20,10,48,8.10
2022,04,20,10,49,8.10
2022,04,20,10,50,8.00
2022,04,20,10,51,8.00
2022,04,20,10,52,7.90
2022,04,20,10,53,7.90
2022,04,20,10,54,7.90
2022,04,20,10,55,7.80
2022,04,20,10,56,7.80
2022,04,20,10,57,7.80
2022,04,20,10,58,7.80
2022,04,20,10,59,7.80
2022,04,20,11,00,7.80
2022,04,20,11,01,7.80
2022,04,20,11,02,7.80
2022,04,20,11,03,7.80
2022,04,20,11,04,7.80
2022,04,20,11,05,7.80
2022,04,20,11,06,7.80
2022,04,20,11,07,7.80
2022,04,20,11,08,7.80
2022,04,20,11,09,7.80
2022,04,20,11,10,7.80
2022,04,20,11,11,7.90
2022,04,20,11,12,7.80
2022,04,20,11,13,7.80
2022,04,20,11,14,7.80
2022,04,20,11,15,7.80
2022,04,20,11,16,7.80
2022,04,20,11,17,7.80
2022,04,20,11,18,7.70
2022,04,20,11,19,7.70
2022,04,20,11,20,7.70
2022,04,20,11,21,7.70
2022,04,20,11,22,7.80
2022,04,20,11,23,7.80
2022,04,20,11,24,7.80
2022,04,20,11,25,7.80
2022,04,20,11,26,7.80
2022,04,20,11,27,7.80
2022,04,20,11,28,7.80
2022,04,20,11,29,7.80
2022,04,20,11,30,7.80
2022,04,20,11,31,7.90
2022,04,20,11,32,7.90
2022,04,20,11,33,7.90
2022,04,20,11,34,7.80
2022,04,20,11,35,7.80
2022,04,20,11,36,7.80
2022,04,20,11,37,7.90
2022,04,20,11,38,7.80
2022,04,20,11,39,7.80
2022,04,20,11,40,7.80
2022,04,20,11,41,7.80
2022,04,20,11,42,7.80
2022,04,20,11,43,7.80
2022,04,20,11,44,7.80
2022,04,20,11,45,7.80
2022,04,20,11,46,7.70
2022,04,20,11,47,7.70
2022,04,20,11,48,7.70
2022,04,20,11,49,7.80
2022,04,20,11,50,7.90
2022,04,20,11,51,7.90
2022,04,20,11,52,7.90
2022,04,20,11,53,7.90
2022,04,20,11,54,7.90
2022,04,20,11,55,7.90
2022,04,20,11,56,7.90
2022,04,20,11,57,7.90
2022,04,20,11,58,7.90
2022,04,20,11,59,7.90
2022,04,20,12,00,7.90
2022,04,20,12,01,7.90
2022,04,20,12,02,7.90
2022,04,20,12,03,7.90
2022,04,20,12,04,7.90
2022,04,20,12,05,7.90
2022,04,20,12,06,7.90
2022,04,20,12,07,7.90
2022,04,20,12,08,8.00
2022,04,20,12,09,8.10
2022,04,20,12,10,8.10
2022,04,20,12,11,8.10
2022,04,20,12,12,8.20
2022,04,20,12,13,8.20
2022,04,20,12,14,8.20
2022,04,20,12,15,8.20
2022,04,20,12,16,8.20
2022,04,20,12,17,8.30
2022,04,20,12,18,8.30
2022,04,20,12,19,8.30
2022,04,20,12,20,8.30
2022,04,20,12,21,8.30
2022,04,20,12,22,8.20
2022,04,20,12,23,8.20
2022,04,20,12,24,8.30
2022,04,20,12,25,8.30
2022,04,20,12,26,8.30
2022,04,20,12,27,8.30
2022,04,20,12,28,8.30
2022,04,20,12,29,8.40
2022,04,20,12,30,8.40
2022,04,20,12,31,8.50
2022,04,20,12,32,8.60
2022,04,20,12,33,8.70
2022,04,20,12,34,8.70
2022,04,20,12,35,8.80
2022,04,20,12,36,8.80
2022,04,20,12,37,8.80
2022,04,20,12,38,8.90
2022,04,20,12,39,8.90
2022,04,20,12,40,8.90
2022,04,20,12,41,8.90
2022,04,20,12,42,8.90
2022,04,20,12,43,8.90
2022,04,20,12,44,8.90
2022,04,20,12,45,8.90
2022,04,20,12,46,8.90
2022,04,20,12,47,8.90
2022,04,20,12,48,8.90
2022,04,20,12,49,9.00
2022,04,20,12,50,9.00
2022,04,20,12,51,9.10
2022,04,20,12,52,9.10
2022,04,20,12,53,9.10
2022,04,20,12,54,9.00
2022,04,20,12,55,9.00
2022,04,20,12,56,8.90
2022,04,20,12,57,8.90
2022,04,20,12,58,9.00
2022,04,20,12,59,9.00
2022,04,20,13,00,9.10
2022,04,20,13,01,9.10
2022,04,20,13,02,9.10
2022,04,20,13,03,9.10
2022,04,20,13,04,9.10
2022,04,20,13,05,9.10
2022,04,20,13,06,9.10
2022,04,20,13,07,9.10
2022,04,20,13,08,9.10
2022,04,20,13,09,9.10
2022,04,20,13,10,9.10
2022,04,20,13,11,9.10
2022,04,20,13,12,9.10
2022,04,20,13,13,9.00
2022,04,20,13,14,9.00
2022,04,20,13,15,8.90
2022,04,20,13,16,8.90
2022,04,20,13,17,8.90
2022,04,20,13,18,8.80
2022,04,20,13,19,8.80
2022,04,20,13,20,8.80
2022,04,20,13,21,8.70
2022,04,20,13,22,8.60
2022,04,20,13,23,8.60
2022,04,20,13,24,8.60
2022,04,20,13,25,8.60
2022,04,20,13,26,8.60
2022,04,20,13,27,8.60
2022,04,20,13,28,8.60
2022,04,20,13,29,8.60
2022,04,20,13,30,8.50
2022,04,20,13,31,8.60
2022,04,20,13,32,8.60
2022,04,20,13,33,8.60
2022,04,20,13,34,8.60
2022,04,20,13,35,8.60
2022,04,20,13,36,8.60
2022,04,20,13,37,8.60
2022,04,20,13,38,8.70
2022,04,20,13,39,8.80
2022,04,20,13,40,8.80
2022,04,20,13,41,8.90
2022,04,20,13,42,8.90
2022,04,20,13,43,8.90
2022,04,20,13,44,9.00
2022,04,20,13,45,9.10
2022,04,20,13,46,9.20
2022,04,20,13,47,9.30
2022,04,20,13,48,9.30
2022,04,20,13,49,9.30
2022,04,20,13,50,9.30
2022,04,20,13,51,9.30
2022,04,20,13,52,9.30
2022,04,20,13,53,9.30
2022,04,20,13,54,9.40
2022,04,20,13,55,9.40
2022,04,20,13,56,9.40
2022,04,20,13,57,9.40
2022,04,20,13,58,9.40
2022,04,20,13,59,9.50
2022,04,20,14,00,9.50
2022,04,20,14,01,9.60
2022,04,20,14,02,9.60
2022,04,20,14,03,9.60
2022,04,20,14,04,9.60
2022,04,20,14,05,9.70
2022,04,20,14,06,9.80
2022,04,20,14,07,9.80
2022,04,20,14,08,9.90
2022,04,20,14,09,9.90
2022,04,20,14,10,9.90
2022,04,20,14,11,9.90
2022,04,20,14,12,9.90
2022,04,20,14,13,9.90
2022,04,20,14,14,9.90
2022,04,20,14,15,9.80
2022,04,20,14,16,9.80
2022,04,20,14,17,9.90
2022,04,20,14,18,9.90
2022,04,20,14,19,9.90
2022,04,20,14,20,9.90
2022,04,20,14,21,9.90
2022,04,20,14,22,9.90
2022,04,20,14,23,9.90
2022,04,20,14,24,9.90
2022,04,20,14,25,9.90
2022,04,20,14,26,10.00
2022,04,20,14,27,10.00
2022,04,20,14,28,10.10
2022,04,20,14,29,10.10
2022,04,20,14,30,10.10
2022,04,20,14,31,10.10
2022,04,20,14,32,10.10
2022,04,20,14,33,10.00
2022,04,20,14,34,9.90
2022,04,20,14,35,9.90
2022,04,20,14,36,9.90
2022,04,20,14,37,10.00
2022,04,20,14,38,10.00
2022,04,20,14,39,10.00
2022,04,20,14,40,10.10
2022,04,20,14,41,10.10
2022,04,20,14,42,10.10
2022,04,20,14,43,10.10
2022,04,20,14,44,10.10
2022,04,20,14,45,10.20
2022,04,20,14,46,10.10
2022,04,20,14,47,10.10
2022,04,20,14,48,10.00
2022,04,20,14,49,10.00
2022,04,20,14,50,10.00
2022,04,20,14,51,10.00
2022,04,20,14,52,10.00
2022,04,20,14,53,10.00
2022,04,20,14,54,9.90
2022,04,20,14,55,9.90
2022,04,20,14,56,9.90
2022,04,20,14,57,9.90
2022,04,20,14,58,9.90
2022,04,20,14,59,9.80
2022,04,20,15,00,9.80
2022,04,20,15,01,9.70
2022,04,20,15,02,9.70
2022,04,20,15,03,9.70
2022,04,20,15,04,9.60
2022,04,20,15,05,9.60
2022,04,20,15,06,9.50
2022,04,20,15,07,9.40
2022,04,20,15,08,9.40
2022,04,20,15,09,9.30
2022,04,20,15,10,9.30
2022,04,20,15,11,9.20
2022,04,20,15,12,9.20
2022,04,20,15,13,9.10
2022,04,20,15,14,9.10
2022,04,20,15,15,9.10
2022,04,20,15,16,9.10
2022,04,20,15,17,9.10
2022,04,20,15,18,9.10
2022,04,20,15,19,9.10
2022,04,20,15,20,9.20
2022,04,20,15,21,9.20
2022,04,20,15,22,9.30
2022,04,20,15,23,9.30
2022,04,20,15,24,9.40
2022,04,20,15,25,9.40
2022,04,20,15,26,9.40
2022,04,20,15,27,9.40
2022,04,20,15,28,9.50
2022,04,20,15,29,9.60
2022,04,20,15,30,9.60
2022,04,20,15,31,9.70
2022,04,20,15,32,9.70
2022,04,20,15,33,9.70
2022,04,20,15,34,9.70
2022,04,20,15,35,9.70
2022,04,20,15,36,9.70
2022,04,20,15,37,9.70
2022,04,20,15,38,9.70
2022,04,20,15,39,9.80
2022,04,20,15,40,9.80
2022,04,20,15,41,9.80
2022,04,20,15,42,9.80
2022,04,20,15,43,9.90
2022,04,20,15,44,9.90
2022,04,20,15,45,9.90
2022,04,20,15,46,9.90
2022,04,20,15,47,9.90
2022,04,20,15,48,10.00
2022,04,20,15,49,10.00
2022,04,20,15,50,10.10
2022,04,20,15,51,10.10
2022,04,20,15,52,10.10
2022,04,20,15,53,10.20
2022,04,20,15,54,10.20
2022,04,20,15,55,10.20
2022,04,20,15,56,10.20
2022,04,20,15,57,10.20
2022,04,20,15,58,10.20
2022,04,20,15,59,10.20
2022,04,20,16,00,10.20
2022,04,20,16,01,10.20
2022,04,20,16,02,10.20
2022,04,20,16,03,10.20
2022,04,20,16,04,10.20
2022,04,20,16,05,10.20
2022,04,20,16,06,10.10
2022,04,20,16,07,10.10
2022,04,20,16,08,10.20
2022,04,20,16,09,10.20
2022,04,20,16,10,10.30
2022,04,20,16,11,10.30
2022,04,20,16,12,10.30
2022,04,20,16,13,10.30
2022,04,20,16,14,10.30
2022,04,20,16,15,10.30
2022,04,20,16,16,10.30
2022,04,20,16,17,10.30
2022,04,20,16,18,10.30
2022,04,20,16,19,10.30
2022,04,20,16,20,10.30
2022,04,20,16,21,10.30
2022,04,20,16,22,10.30
2022,04,20,16,23,10.30
2022,04,20,16,24,10.30
2022,04,20,16,25,10.30
2022,04,20,16,26,10.30
2022,04,20,16,27,10.40
2022,04,20,16,28,10.40
2022,04,20,16,29,10.40
2022,04,20,16,30,10.50
2022,04,20,16,31,10.50
2022,04,20,16,32,10.50
2022,04,20,16,33,10.50
2022,04,20,16,34,10.50
2022,04,20,16,35,10.50
2022,04,20,16,36,10.50
2022,04,20,16,37,10.50
2022,04,20,16,38,10.40
2022,04,20,16,39,10.40
2022,04,20,16,40,10.30
2022,04,20,16,41,10.30
2022,04,20,16,42,10.30
2022,04,20,16,43,10.30
2022,04,20,16,44,10.20
2022,04,20,16,45,10.20
2022,04,20,16,46,10.20
2022,04,20,16,47,10.20
2022,04,20,16,48,10.20
2022,04,20,16,49,10.20
2022,04,20,16,50,10.20
2022,04,20,16,51,10.20
2022,04,20,16,52,10.10
2022,04,20,16,53,10.10
2022,04,20,16,54,10.10
2022,04,20,16,55,10.10
2022,04,20,16,56,10.10
2022,04,20,16,57,10.10
2022,04,20,16,58,10.10
2022,04,20,16,59,10.10
2022,04,20,17,00,10.10
2022,04,20,17,01,10.20
2022,04,20,17,02,10.20
2022,04,20,17,03,10.30
2022,04,20,17,04,10.30
2022,04,20,17,05,10.30
2022,04,20,17,06,10.30
2022,04,20,17,07,10.30
2022,04,20,17,08,10.30
2022,04,20,17,09,10.40
2022,04,20,17,10,10.40
2022,04,20,17,11,10.40
2022,04,20,17,12,10.40
2022,04,20,17,13,10.40
2022,04,20,17,14,10.40
2022,04,20,17,15,10.40
2022,04,20,17,16,10.50
2022,04,20,17,17,10.50
2022,04,20,17,18,10.50
2022,04,20,17,19,10.40
2022,04,20,17,20,10.40
2022,04,20,17,21,10.30
2022,04,20,17,22,10.30
2022,04,20,17,23,10.30
2022,04,20,17,24,10.20
2022,04,20,17,25,10.20
2022,04,20,17,26,10.10
2022,04,20,17,27,10.00
2022,04,20,17,28,10.00
2022,04,20,17,29,9.90
2022,04,20,17,30,9.90
2022,04,20,17,31,9.90
2022,04,20,17,32,9.90
2022,04,20,17,33,9.80
2022,04,20,17,34,9.80
2022,04,20,17,35,9.80
2022,04,20,17,36,9.80
2022,04,20,17,37,9.80
2022,04,20,17,38,9.80
2022,04,20,17,39,9.80
2022,04,20,17,40,9.80
2022,04,20,17,41,9.80
2022,04,20,17,42,9.80
2022,04,20,17,43,9.80
2022,04,20,17,44,9.80
2022,04,20,17,45,9.80
2022,04,20,17,46,9.80
2022,04,20,17,47,9.80
2022,04,20,17,48,9.80
2022,04,20,17,49,9.80
2022,04,20,17,50,9.80
2022,04,20,17,51,9.80
2022,04,20,17,52,9.90
2022,04,20,17,53,9.90
2022,04,20,17,54,9.90
2022,04,20,17,55,9.90
2022,04,20,17,56,9.90
2022,04,20,17,57,9.90
2022,04,20,17,58,10.00
2022,04,20,17,59,10.00
2022,04,20,18,00,10.10